Regional Weather Roundup
Issued by NWS Sioux Falls, SD

Home | Current Version | Previous Version | Text Only | Print | Product List | Glossary On
Versions: 1 2 3 4 5 6 7 8 9 10 11 12 13 14 15 16 17 18 19 20 21 22 23 24 25 26 27 28 29 30 31 32 33 34 35 36 37 38 39 40 41 42 43 44 45 46 47 48 49 50
000
ASUS43 KFSD 270610
RWRFSD

WEATHER ROUNDUP FOR SE SOUTH DAKOTA/SW MINNESOTA/NW IOWA
NATIONAL WEATHER SERVICE SIOUX FALLS SD
1200 AM CST SAT DEC 27 2014

NOTE: "FAIR" INDICATES FEW OR NO CLOUDS BELOW 12,000 FEET WITH NO
SIGNIFICANT WEATHER AND OR OBSTRUCTIONS TO VISIBILITY.


SDZ038>040-050-052>070-270700-
SOUTHEAST SOUTH DAKOTA

CITY           SKY/WX    TMP DP  RH WIND       PRES   REMARKS
CHAMBERLAIN    CLOUDY    16  12  85 NW7       30.18S WCI   6
6HR MIN TEMP:  15; 6HR MAX TEMP:  21;

HURON          CLOUDY    16  12  84 N14       30.19R WCI   2
6HR MIN TEMP:  16; 6HR MAX TEMP:  22;

MADISON        LGT SNOW  19  19 100 N14       30.10R WCI   6
MITCHELL       LGT SNOW  20  17  88 N14       30.17R FOG     WCI   7
6HR MIN TEMP:  20; 6HR MAX TEMP:  24; 6HR PCP:  0.03;

SIOUX FALLS    LGT SNOW  22  20  92 N12       30.08S VSB 1   WCI  10
6HR MIN TEMP:  22; 6HR MAX TEMP:  24; 6HR PCP:  0.10;

WINNER         LGT SNOW  17  13  84 NW7       30.17S FOG     WCI   8
YANKTON        MOCLDY    21  19  93 NW14      30.14S WCI   8
$$

MNZ071-072-080-081-089-090-097-098-270700-
SOUTHWEST MINNESOTA

CITY           SKY/WX    TMP DP  RH WIND       PRES   REMARKS
FAIRMONT       CLOUDY    27  23  86 N15       30.00F WCI  15
JACKSON        LGT SNOW  27  25  93 VRB12     30.02F WCI  16
LUVERNE        LGT SNOW  25  21  86 N13       30.05F WCI  13
MARSHALL       CLOUDY    21  18  86 N15       30.10S WCI   8
6HR MIN TEMP:  21; 6HR MAX TEMP:  25;

MONTEVIDEO     CLOUDY    23  19  86 N12       30.13R WCI  12
PIPESTONE      CLOUDY    21  19  93 N9        30.06F WCI  11
REDWOOD FALLS  LGT SNOW  25  23  92 N8        30.08S VSB 1   WCI  16
TRACY          LGT SNOW  24  23  95 N12       30.08S WCI  13
WINDOM         LGT SNOW  25  23  93 N16       30.03F WCI  12
WORTHINGTON    CLOUDY    23 -24  11 N16G24    30.03F WCI  10
$$

IAZ001>003-012>014-020>022-031-032-NEZ013-014-SDZ071-270700-
NORTHWEST IOWA

CITY           SKY/WX    TMP DP  RH WIND       PRES   REMARKS
CHEROKEE       LGT SNOW  27  26  98 N8G18     30.02R WCI  18
DENISON        CLOUDY    30  30 100 N8        29.98F WCI  23
ESTHERVILLE    LGT SNOW  26  24  92 N17       29.98F FOG     WCI  13
LE MARS        LGT SNOW  25  25 100 N13G18    30.06S WCI  13
ORANGE CITY    LGT SNOW  27  21  80 N12G17    30.03S WCI  16
SHELDON        LGT SNOW  25  25 100 N16       30.02F WCI  12
SIOUX CITY     LGT SNOW  26  23  88 NW13      30.08R VSB 3/4 WCI  15
6HR MIN TEMP:  26; 6HR MAX TEMP:  31; 6HR PCP:  0.10;

SPENCER        LGT SNOW  27  23  85 N14       30.00F FOG     WCI  16
6HR MIN TEMP:  27; 6HR MAX TEMP:  30; 6HR PCP: TRACE;

STORM LAKE     MIX PCPN  27  27 100 N13       29.99S WCI  16
$$

ABBREVIATIONS USED IN REMARKS
   TC - TEMPERATURE IN CELSIUS
  WCI - WIND CHILL INDEX
   HX - HEAT INDEX
  VSB - VISIBILITY



USA.gov is the U.S. government's official web portal to all federal, state and local government web resources and services.